DW0479 Weather Reports


time (UTC)temp
C
wind
direction
speed
KPH
gust
KPH
rain 1hr
cm
rain 24hr
cm
rain mn
cm
humidity
%
barometer
mb
20260901092042 25 28 0.0 3.2 0.00 0.71 0.00 95 1015.2
20260901091035 25 28 0.0 3.2 0.00 0.71 0.00 95 1015.1
20260901090034 25 28 0.0 1.6 0.00 0.71 0.00 95 1015.1
20260901085509 25 28 0.0 1.6 0.00 0.71 0.00 95 1015.1
20260901084035 25 28 0.0 3.2 0.00 0.71 0.00 95 1015.0
20260901083025 25 28 1.6 4.8 0.00 0.71 0.00 95 1015.0
20260901082510 25 28 3.2 4.8 0.00 0.71 0.00 95 1014.9
20260901081025 24 28 0.0 3.2 0.00 0.71 0.00 95 1014.9
20260901080028 25 28 1.6 3.2 0.00 0.71 0.00 95 1015.2
20260901075015 24 28 1.6 4.8 0.00 0.71 0.00 95 1015.2
20260901074014 24 28 0.0 3.2 0.00 0.71 0.00 95 1015.2
20260901073012 24 28 0.0 1.6 0.00 0.71 0.00 95 1015.2
20260901072931 25 28 0.0 1.6 0.00 0.71 0.00 95 1015.3
20260901071010 24 28 0.0 0.0 0.00 0.71 0.00 95 1015.6
20260901070012 25 28 0.0 0.0 0.00 0.71 0.00 95 1015.8
20260901065009 25 28 0.0 1.6 0.00 0.71 0.00 95 1015.7
20260901064007 25 28 1.6 6.4 0.00 0.71 0.00 95 1015.8
20260901062959 25 28 3.2 6.4 0.00 0.71 0.00 95 1016.1
20260901062928 25 28 1.6 4.8 0.00 0.71 0.00 95 1016.2
20260901061921 25 28 3.2 4.8 0.00 0.71 0.00 95 1016.5
20260901060001 25 28 1.6 6.4 0.00 0.71 0.00 95 1016.5
20260901055938 25 28 0.0 3.2 0.00 0.71 0.00 95 1016.8
20260901053959 25 28 0.0 0.0 0.00 0.71 0.00 94 1016.7
20260901052959 25 28 0.0 1.6 0.00 0.71 0.00 94 1017.0
20260901051957 25 28 0.0 0.0 0.00 0.71 0.00 95 1017.0
20260901051000 25 28 0.0 0.0 0.00 0.71 0.00 94 1017.0
20260901045959 25 28 0.0 0.0 0.00 0.71 0.00 94 1017.1
20260901044957 25 28 1.6 4.8 0.00 0.71 0.00 95 1017.3
20260901043958 25 28 0.0 3.2 0.00 0.71 0.00 94 1017.1
20260901043914 25 28 0.0 0.0 0.00 0.71 0.00 94 1017.0
20260901041954 25 28 0.0 4.8 0.00 0.71 0.00 94 1017.1
20260901040941 25 28 1.6 6.4 0.00 0.71 0.00 94 1017.1
20260901035938 25 28 0.0 0.0 0.00 0.71 0.71 94 1017.2
20260901034938 25 28 0.0 1.6 0.00 0.71 0.71 94 1017.1
20260901034425 25 28 0.0 0.0 0.00 0.71 0.71 94 1017.2
20260901032936 25 28 0.0 0.0 0.00 0.71 0.71 94 1017.2
20260901031936 25 28 0.0 1.6 0.00 0.71 0.71 94 1017.3
20260901030937 25 28 1.6 4.8 0.00 0.71 0.71 94 1017.4
20260901025936 25 28 0.0 4.8 0.00 0.71 0.71 94 1017.3
20260901024935 25 28 1.6 4.8 0.00 0.71 0.71 94 1017.2
20260901023936 25 28 0.0 3.2 0.00 0.71 0.71 94 1017.2
20260901022937 25 28 0.0 0.0 0.00 0.71 0.71 94 1017.1
20260901021940 25 28 0.0 1.6 0.00 0.71 0.71 94 1016.9
20260901020920 25 28 0.0 0.0 0.00 0.71 0.71 94 1016.9
20260901015917 26 28 0.0 3.2 0.00 0.71 0.71 94 1016.9
20260901015347 25 28 0.0 3.2 0.00 0.71 0.71 94 1016.7
20260901013858 25 28 0.0 0.0 0.00 0.71 0.71 94 1016.6
20260901012838 25 28 0.0 0.0 0.00 0.71 0.71 94 1016.6
20260901011835 25 28 0.0 0.0 0.00 0.71 0.71 94 1016.6
20260901010818 25 28 0.0 0.0 0.00 0.71 0.71 94 1016.5
20260901005753 26 28 0.0 1.6 0.00 0.71 0.71 94 1016.3
20260901004737 26 28 0.0 0.0 0.00 0.71 0.71 94 1016.3
20260901003735 26 28 0.0 0.0 0.00 0.71 0.71 94 1016.3
20260901002729 26 28 0.0 0.0 0.00 0.71 0.71 93 1016.4
20260901001719 26 28 0.0 0.0 0.00 0.71 0.71 93 1016.3
20260901000637 26 28 0.0 3.2 0.00 0.71 0.71 93 1016.3
20260901000112 26 28 0.0 0.0 0.00 0.71 0.71 93 1016.4
20260831234628 26 28 0.0 0.0 0.00 0.71 0.71 93 1016.2
20260831233622 26 28 0.0 0.0 0.00 0.71 0.71 93 1016.0
20260831232621 26 28 0.0 0.0 0.00 0.71 0.71 93 1016.0
20260831231617 26 28 0.0 0.0 0.00 0.71 0.71 92 1016.0
20260831230603 26 28 0.0 1.6 0.00 0.71 0.71 92 1016.0
20260831225550 26 28 1.6 6.4 0.00 0.71 0.71 91 1016.1
20260831224547 26 28 1.6 6.4 0.00 0.71 0.71 91 1016.1
20260831223547 26 28 1.6 4.8 0.00 0.71 0.71 91 1016.1
20260831222545 26 28 3.2 6.4 0.00 0.71 0.71 91 1016.1
20260831222015 26 28 3.2 8.0 0.00 0.71 0.71 90 1016.1
20260831220534 26 31 3.2 6.4 0.00 0.71 0.71 91 1016.0
20260831220015 26 35 3.2 6.4 0.00 0.71 0.71 91 1016.2
20260831214529 26 36 3.2 8.0 0.03 0.71 0.71 92 1016.2
20260831213527 26 31 3.2 6.4 0.05 0.71 0.71 92 1016.3
20260831212528 26 28 3.2 8.0 0.05 0.71 0.71 92 1016.4
20260831211527 25 21 3.2 11.3 0.08 0.71 0.71 92 1016.5
20260831210527 26 93 1.6 6.4 0.08 0.71 0.71 92 1016.5
20260831205514 25 93 3.2 9.7 0.10 0.71 0.71 92 1016.3
20260831204513 25 77 3.2 8.0 0.10 0.69 0.69 92 1016.4
20260831203509 25 21 1.6 4.8 0.10 0.66 0.66 92 1016.5
20260831202939 25 21 3.2 8.0 0.13 0.66 0.66 92 1016.5
20260831201500 25 119 4.8 12.9 0.13 0.64 0.64 92 1016.4
20260831201436 25 76 4.8 14.5 0.18 0.64 0.64 91 1016.6
20260831195456 25 68 4.8 11.3 0.25 0.61 0.61 91 1016.9
20260831194453 25 52 4.8 12.9 0.48 0.58 0.58 91 1017.2
20260831193452 25 34 6.4 16.1 0.56 0.56 0.56 91 1017.3
20260831192451 25 55 6.4 24.1 0.53 0.53 0.53 90 1017.1
20260831191444 25 75 8.0 16.1 0.51 0.51 0.51 89 1016.7
20260831190443 25 104 11.3 25.7 0.46 0.46 0.46 88 1016.4
20260831185441 25 36 9.7 24.1 0.36 0.36 0.36 87 1016.3
20260831184444 26 59 12.9 22.5 0.10 0.10 0.10 83 1016.4
20260831183439 29 81 11.3 24.1 0.00 0.00 0.00 75 1016.3
20260831182439 31 63 6.4 22.5 0.00 0.00 0.00 69 1016.2
20260831181434 32 64 6.4 11.3 0.00 0.00 0.00 63 1016.0
20260831180433 34 60 8.0 14.5 0.00 0.00 0.00 64 1016.0
20260831175911 35 25 4.8 12.9 0.00 0.00 0.00 62 1016.0
20260831174912 33 51 6.4 14.5 0.00 0.00 0.00 61 1016.2
20260831173434 33 10 8.0 14.5 0.00 0.00 0.00 66 1016.4
20260831172430 33 29 4.8 14.5 0.00 0.00 0.00 63 1016.6
20260831171432 33 346 4.8 14.5 0.00 0.00 0.00 63 1016.7
20260831170427 33 332 3.2 14.5 0.00 0.00 0.00 65 1016.8
20260831165425 31 308 3.2 8.0 0.00 0.00 0.00 67 1017.0
20260831164424 31 324 0.0 6.4 0.00 0.00 0.00 74 1017.1
20260831163424 32 24 3.2 8.0 0.00 0.00 0.00 67 1017.3
20260831162425 31 44 3.2 8.0 0.00 0.00 0.00 71 1017.4
20260831161424 32 5 3.2 12.9 0.00 0.00 0.00 74 1017.5
20260831160425 31 331 3.2 8.0 0.00 0.00 0.00 74 1017.6
20260831155426 32 343 3.2 12.9 0.00 0.00 0.00 74 1017.8
20260831154425 30 10 1.6 4.8 0.00 0.00 0.00 77 1017.8
20260831153422 30 19 3.2 11.3 0.00 0.00 0.00 77 1017.9
20260831152422 30 21 3.2 11.3 0.00 0.00 0.00 76 1017.9
20260831151422 30 15 4.8 14.5 0.00 0.00 0.00 77 1018.0
20260831150906 30 20 1.6 4.8 0.00 0.00 0.00 77 1017.9
20260831145423 29 28 1.6 6.4 0.00 0.00 0.00 78 1017.8
20260831144414 30 29 1.6 8.0 0.00 0.00 0.00 76 1017.7
20260831143412 30 27 3.2 8.0 0.00 0.00 0.00 78 1017.7
20260831142412 30 24 1.6 6.4 0.00 0.00 0.00 82 1017.7
20260831141412 29 27 3.2 6.4 0.00 0.00 0.00 84 1017.7
20260831140413 28 351 3.2 6.4 0.00 0.00 0.00 84 1017.8
20260831135410 28 10 1.6 9.7 0.00 0.00 0.00 89 1017.8
20260831134410 27 15 1.6 6.4 0.00 0.00 0.00 91 1017.7
20260831133410 27 10 3.2 6.4 0.00 0.00 0.00 93 1017.6
20260831132816 26 19 1.6 6.4 0.00 0.00 0.00 94 1017.3
20260831132453 26 5 1.6 6.4 0.00 0.00 0.00 94 1017.5
20260831130408 26 337 1.6 8.0 0.00 0.00 0.00 95 1017.3
20260831125409 25 350 0.0 4.8 0.00 0.00 0.00 94 1017.3
20260831124407 25 350 0.0 4.8 0.00 0.00 0.00 94 1017.3
20260831123411 25 350 3.2 6.4 0.00 0.00 0.00 95 1017.3
20260831122402 25 348 1.6 4.8 0.00 0.00 0.00 95 1017.2
20260831121354 25 350 3.2 6.4 0.00 0.00 0.00 95 1017.1
20260831120348 25 341 0.0 0.0 0.00 0.00 0.00 95 1017.0
20260831115345 24 342 0.0 0.0 0.00 0.00 0.00 95 1016.8
20260831114346 24 342 0.0 0.0 0.00 0.00 0.00 95 1016.7
20260831113344 23 341 0.0 0.0 0.00 0.00 0.00 94 1016.6
20260831112341 23 341 0.0 0.0 0.00 0.00 0.00 95 1016.4
20260831111337 23 341 0.0 0.0 0.00 0.00 0.00 94 1016.4
20260831110333 23 342 0.0 0.0 0.00 0.00 0.00 94 1016.2
20260831105334 23 342 0.0 0.0 0.00 0.00 0.00 94 1015.9
20260831104336 23 342 0.0 0.0 0.00 0.00 0.00 95 1015.8
20260831103333 23 342 0.0 0.0 0.00 0.00 0.00 94 1015.9
20260831102333 23 342 0.0 0.0 0.00 0.00 0.00 94 1015.8
20260831101333 23 342 0.0 0.0 0.00 0.00 0.00 94 1015.7
20260831100814 23 342 0.0 0.0 0.00 0.00 0.00 94 1015.7
20260831095319 23 342 0.0 0.0 0.00 0.00 0.00 94 1015.6
20260831094320 23 342 0.0 0.0 0.00 0.00 0.00 94 1015.6
20260831093319 23 341 0.0 0.0 0.00 0.00 0.00 94 1015.6